Location: São Paulo
(23.5507°S, 46.6334°W)
Time: 17:35:17
(UTC-03:00)

Tiros 1 - Pass Details

Date: 14 February 2026
Orbit: 618 x 649 km, 48.4° (Epoch: 8 March)

Event Time Altitude Azimuth Distance (km) Brightness Sun altitude
Rises 19:15:41 0° 344° (NNW) 2,897 10.5 -7.1°
Reaches altitude 10° 19:18:18 10° 357° (N) 2,003 9.5 -7.7°
Maximum altitude 19:22:04 25° 52° (NE) 1,288 8.2 -8.5°
Drops below altitude 10° 19:25:53 10° 107° (ESE) 2,037 9.2 -9.4°
Enters shadow 19:27:37 - 116° (ESE) 2,617 9.8 -9.7°
Sets 19:28:34 0° 119° (ESE) 2,958 - -9.9°
